RH
7 7 7 7 8 10 12 14 14 13 13 14 16 18 18 18 18 18 21 17 18 17 16 15 14 13 12 11 12 13 16 18 19 19 20 18 18 18 18 17 18 18 18 19 20
8 7 7 8 9 11 14 14 14 14 14 14 15 17 17 17 17 18 17 16 16 15 15 15 14 13 13 12 10 14 16 17 16 16 16 16 16 16 16 16 16 17 18 20 21
8 8 9 9 9 11 13 13 13 13 13 13 15 15 16 16 16 17 16 15 15 14 14 13 12 13 13 12 12 12 16 14 14 14 14 15 15 15 15 15 16 17 19 21 22
10 10 10 10 11 12 11 13 13 13 12 13 14 14 14 14 18 14 14 14 14 13 13 12 12 13 12 12 12 12 13 13 15 14 14 15 14 14 15 18 17 19 20 22 23
10 11 12 11 13 13 12 12 13 13 12 12 13 14 14 16 13 13 13 12 12 11 10 11 11 11 11 11 12 12 13 14 14 14 15 15 15 16 16 18 19 20 21 22 24
12 13 13 13 13 14 12 12 11 11 11 11 13 13 14 15 13 12 12 11 10 10 10 10 10 10 11 12 13 14 15 15 15 15 15 16 16 18 17 20 21 21 22 23 25
12 13 14 14 15 15 14 13 12 12 11 11 11 12 14 13 12 12 12 11 10 10 10 9 10 12 12 15 16 16 16 16 17 17 17 18 18 19 20 21 21 22 24 26 28
14 14 15 15 15 15 15 14 13 12 12 12 12 12 14 13 13 12 12 12 11 11 11 12 13 14 16 16 17 18 18 19 19 17 18 20 18 21 21 22 23 24 26 28 31
15 15 16 16 16 15 14 13 13 12 12 12 13 14 13 13 13 12 12 12 12 12 13 14 15 16 17 18 21 19 17 17 21 19 20 21 21 24 23 24 25 26 27 29 33
15 16 16 16 16 15 15 13 13 13 12 12 13 13 12 13 12 12 11 12 14 14 16 16 16 18 17 17 18 15 14 16 18 22 22 23 23 24 26 27 27 28 29 30 33
17 17 16 17 17 15 14 14 14 14 12 13 14 13 12 11 11 11 11 13 14 16 17 15 18 18 16 15 14 15 16 17 19 23 24 24 23 25 26 29 29 28 30 32 35
18 17 17 18 17 15 14 14 12 13 13 12 12 12 11 12 12 12 12 15 16 16 16 19 20 18 16 14 15 16 19 20 21 24 24 23 24 24 25 26 28 29 31 33 36
18 18 18 17 16 15 14 13 12 12 13 12 12 12 12 12 13 13 15 15 15 15 16 18 20 18 16 15 16 17 19 19 21 22 24 25 24 24 24 24 26 28 30 32 36
18 19 18 17 17 16 16 14 14 15 15 16 13 14 13 13 13 14 15 16 16 16 17 19 19 17 16 15 18 20 20 21 22 24 23 23 24 22 21 23 24 27 28 31 35
18 20 19 17 18 19 18 17 18 18 23 18 17 16 15 15 15 16 16 17 17 17 19 24 19 17 15 16 18 19 21 22 22 23 23 23 23 22 21 21 22 24 28 31 34
19 19 20 19 19 18 19 20 21 22 24 22 20 17 16 16 17 17 18 18 18 19 19 20 19 17 18 17 18 20 21 22 23 23 27 21 22 22 20 20 22 24 27 29 32
20 19 20 20 21 18 20 21 25 24 23 22 22 19 18 18 19 19 19 20 20 20 22 21 19 19 18 18 19 20 20 23 25 25 22 21 22 20 20 20 22 24 26 28 31
19 20 20 20 21 19 20 22 25 23 23 23 22 22 21 21 21 21 21 20 20 20 18 18 19 19 19 17 19 18 20 20 23 20 19 21 22 19 19 20 21 23 25 27 30
20 20 20 20 21 21 21 23 22 23 22 24 25 23 22 22 22 23 22 22 21 20 20 17 17 19 19 18 18 20 20 19 20 20 22 18 17 18 19 20 20 22 24 27 29
21 21 20 20 21 21 23 22 22 23 23 24 25 23 22 23 24 24 23 24 23 21 20 19 17 19 21 19 19 19 19 21 21 24 23 16 17 19 20 21 22 23 24 27 30
24 24 22 21 21 22 23 23 22 23 24 24 25 24 23 24 24 25 23 25 24 24 21 20 19 22 20 21 20 19 19 20 21 22 25 21 18 17 18 19 20 23 24 26 30
27 26 23 22 23 23 23 23 22 23 25 25 26 26 24 25 25 25 24 24 25 24 22 22 21 19 19 20 19 20 19 19 21 23 24 26 20 17 18 20 21 22 25 27 30
30 28 26 25 24 24 23 23 23 23 26 27 28 27 26 26 27 26 26 26 26 26 24 24 22 21 21 21 19 19 19 18 19 22 22 24 18 19 19 20 21 22 25 27 30
35 32 28 27 27 25 24 24 22 24 26 27 28 29 28 27 27 27 27 28 27 27 27 26 24 22 20 21 18 19 19 19 20 21 20 20 17 17 19 21 22 23 25 28 31
39 37 34 32 28 26 27 24 24 24 27 29 29 29 28 28 29 29 28 28 29 28 28 28 27 23 20 18 17 17 18 20 20 19 20 16 18 18 19 20 21 22 25 28 31
43 41 39 35 31 30 30 26 25 25 26 28 29 29 29 29 28 27 29 29 26 29 29 29 27 25 20 18 18 19 18 19 19 19 19 20 19 18 19 20 22 22 24 27 30
38 38 44 41 39 36 31 28 27 27 26 27 29 31 31 29 29 29 30 31 30 27 24 27 27 26 23 19 19 18 14 16 19 18 19 21 18 18 19 21 22 22 24 26 30